Beckley, WV

7:58 AM EDT on October 24, 2017 (GMT -0400)
Raleigh County Memorial

Weather History for KBKW - September, 2013

Change the Weather History Date:

Friday, September 20, 2013

  Actual Average Record
Temperature  
Mean Temperature 69 °F 62 °F  
Max Temperature 75 °F 71 °F 86 °F (1931)
Min Temperature 63 °F 52 °F 29 °F (1937)
Degree Days  
Heating Degree Days 0 5  
Month to date heating degree days 42 50  
Since 1 July heating degree days 62 71  
Cooling Degree Days 4 1  
Month to date cooling degree days 57 49  
Year to date cooling degree days 600 542  
Growing Degree Days 19 (Base 50)    
Moisture  
Dew Point 63 °F    
Average Humidity 81    
Maximum Humidity 93    
Minimum Humidity 68    
Precipitation  
Precipitation 0.09 in 0.10 in 2.75 in (1954)
Month to date precipitation 0.89 2.06  
Year to date precipitation 30.86 31.72  
Snow  
Snow 0.00 in 0.00 in 0.00 in (2016)
Month to date snowfall 0.0 0.0  
Since 1 September snowfall 0.0 0.0  
Snow Depth 0.00 in    
Sea Level Pressure  
Sea Level Pressure 30.04 in    
Wind  
Wind Speed 7 mph (SW)    
Max Wind Speed 14 mph    
Max Gust Speed 20 mph    
Visibility 7 miles    
Events Rain    
T = Trace of Precipitation, MM = Missing Value Source: NWS Daily Summary

Daily Weather History Graph

Daily Weather History Graph

Search for Another Location

Airport or City:

Trip Planner

Search our weather history database for the weather conditions in past years. The results will help you decide how hot, cold, wet, or windy it might be!

Date:

Astronomy

Sep. 20, 2013 Rise Set
Actual Time 7:10 AM EDT 7:24 PM EDT
Civil Twilight 6:44 AM EDT 7:50 PM EDT
Nautical Twilight 6:13 AM EDT 8:21 PM EDT
Astronomical Twilight 5:42 AM EDT 8:52 PM EDT
Moon 7:59 PM EDT (9/20) 8:21 AM EDT (9/20)
Length of Visible Light 13h 05m
Length of Day
12h 13m
Full, 98% of the Moon is Illuminated
Sep 20
Full
Sep 26
Last Quarter
Oct 4
New
Oct 11
First Quarter
Oct 18
Full

Hourly Weather History & Observations

Time (EDT) Temp. Dew Point Humidity Pressure Visibility Wind Dir Wind Speed Gust Speed Precip Events Conditions
12:43 AM 62.6 °F 62.6 °F 100% 30.14 in 5.0 mi WSW 3.5 mph - N/A   Mostly Cloudy
12:51 AM 64.0 °F 62.1 °F 93% 30.07 in 4.0 mi Calm Calm - N/A   Mostly Cloudy
1:05 AM 62.6 °F 62.6 °F 100% 30.14 in 4.0 mi Calm Calm - N/A   Mostly Cloudy
1:13 AM 62.6 °F 62.6 °F 100% 30.14 in 3.0 mi Calm Calm - N/A   Mostly Cloudy
1:51 AM 64.9 °F 63.0 °F 93% 30.06 in 5.0 mi SW 5.8 mph - N/A   Overcast
2:22 AM 64.4 °F 62.6 °F 94% 30.13 in 5.0 mi SW 5.8 mph - 0.00 in Rain Light Rain
2:43 AM 64.4 °F 62.6 °F 94% 30.13 in 1.8 mi Variable 3.5 mph - 0.02 in Rain Heavy Rain
2:51 AM 64.9 °F 63.0 °F 93% 30.06 in 2.0 mi SW 4.6 mph - 0.05 in Rain Rain
3:00 AM 64.4 °F 62.6 °F 94% 30.13 in 5.0 mi WSW 3.5 mph - 0.01 in Rain Light Rain
3:22 AM 64.4 °F 62.6 °F 94% 30.12 in 5.0 mi WSW 4.6 mph - 0.01 in   Overcast
3:51 AM 64.9 °F 63.0 °F 93% 30.05 in 5.0 mi SSW 4.6 mph - 0.01 in   Overcast
4:02 AM 64.4 °F 62.6 °F 94% 30.12 in 5.0 mi SW 5.8 mph - N/A   Overcast
4:22 AM 64.4 °F 62.6 °F 94% 30.11 in 5.0 mi SW 6.9 mph - N/A   Overcast
4:51 AM 64.0 °F 62.1 °F 93% 30.04 in 4.0 mi SW 6.9 mph - N/A   Overcast
5:51 AM 64.0 °F 62.1 °F 93% 30.04 in 4.0 mi SW 8.1 mph - N/A   Overcast
6:51 AM 64.9 °F 62.1 °F 90% 30.04 in 4.0 mi WSW 5.8 mph - N/A   Overcast
7:51 AM 64.0 °F 62.1 °F 93% 30.05 in 3.0 mi SW 8.1 mph - N/A   Overcast
8:51 AM 64.9 °F 63.0 °F 93% 30.05 in 4.0 mi WSW 6.9 mph - N/A   Overcast
9:00 AM 64.4 °F 62.6 °F 94% 30.12 in 4.0 mi WSW 6.9 mph - N/A   Overcast
9:51 AM 68.0 °F 64.0 °F 87% 30.04 in 6.0 mi West 6.9 mph - N/A   Overcast
10:00 AM 68.0 °F 64.4 °F 88% 30.12 in 6.0 mi West 8.1 mph - N/A   Overcast
10:08 AM 68.0 °F 64.4 °F 88% 30.12 in 7.0 mi West 6.9 mph - N/A   Overcast
10:37 AM 69.8 °F 64.4 °F 83% 30.13 in 8.0 mi West 5.8 mph - N/A   Overcast
10:51 AM 69.1 °F 63.0 °F 81% 30.05 in 9.0 mi West 6.9 mph - N/A   Overcast
11:28 AM 71.6 °F 64.4 °F 78% 30.11 in 9.0 mi WSW 6.9 mph - N/A   Mostly Cloudy
11:51 AM 73.0 °F 64.0 °F 73% 30.01 in 10.0 mi NW 8.1 mph - N/A   Scattered Clouds
12:04 PM 73.4 °F 64.4 °F 73% 30.10 in 10.0 mi West 8.1 mph - N/A   Mostly Cloudy
12:51 PM 75.0 °F 64.0 °F 69% 30.00 in 10.0 mi West 5.8 mph - N/A   Overcast
1:20 PM 75.2 °F 64.4 °F 69% 30.09 in 10.0 mi West 4.6 mph - N/A   Mostly Cloudy
1:51 PM 73.9 °F 63.0 °F 68% 29.99 in 10.0 mi Calm Calm - N/A   Mostly Cloudy
2:21 PM 73.4 °F 64.4 °F 73% 30.06 in 2.5 mi Calm Calm - 0.00 in Rain Rain
2:25 PM 73.4 °F 64.4 °F 73% 30.06 in 1.5 mi Calm Calm - 0.03 in Rain Heavy Rain
2:30 PM 73.4 °F 64.4 °F 73% 30.06 in 2.0 mi Calm Calm - 0.03 in Rain Light Rain
2:32 PM 73.4 °F 64.4 °F 73% 30.06 in 4.0 mi Calm Calm - 0.03 in Rain Light Rain
2:51 PM 72.0 °F 66.0 °F 81% 29.96 in 10.0 mi ESE 9.2 mph - 0.03 in   Mostly Cloudy
3:12 PM 69.8 °F 64.4 °F 83% 30.05 in 10.0 mi SE 9.2 mph - N/A   Mostly Cloudy
3:49 PM 69.8 °F 64.4 °F 83% 30.04 in 10.0 mi NE 9.2 mph - N/A   Overcast
3:51 PM 70.0 °F 64.0 °F 81% 29.96 in 10.0 mi NE 10.4 mph - N/A   Overcast
4:08 PM 71.6 °F 64.4 °F 78% 30.03 in 10.0 mi East 9.2 mph - N/A   Mostly Cloudy
4:51 PM 70.0 °F 64.0 °F 81% 29.95 in 10.0 mi SE 5.8 mph - N/A   Scattered Clouds
5:51 PM 71.1 °F 64.0 °F 78% 29.92 in 10.0 mi SE 8.1 mph - N/A   Clear
6:51 PM 70.0 °F 64.0 °F 81% 29.92 in 10.0 mi SE 5.8 mph - N/A   Clear
7:51 PM 68.0 °F 64.0 °F 87% 29.94 in 10.0 mi SSE 4.6 mph - N/A   Clear
8:51 PM 66.9 °F 63.0 °F 87% 29.93 in 10.0 mi SSE 5.8 mph - N/A   Partly Cloudy
9:51 PM 66.9 °F 63.0 °F 87% 29.92 in 10.0 mi SE 9.2 mph - N/A   Clear
10:51 PM 66.0 °F 62.1 °F 87% 29.91 in 10.0 mi SSE 9.2 mph 17.3 mph N/A   Clear
11:51 PM 64.9 °F 62.1 °F 90% 29.90 in 9.0 mi SSE 9.2 mph 17.3 mph N/A   Clear